OCN524 ENTC-EFHK

Flight info

Callsign OCN524
Flight time 1h 30m
Altitude 37000
Route MOKAX P853 RIXEM DCT IBOSU Y86 LUSEP
Aircraft A20N/M-SDE2E3FGHIRWXY/LB1

Departure

Time 2026-04-26 17:07
Airport Tromsø Airport (ENTC)

Arrival

Time 2026-04-26 18:38
Airport Helsinki Vantaa Airport (EFHK)
Time Latitude Longitude Altitude Speed Heading
2026-04-26 16:46 69.68014 18.90952 -7 ft 0 kts 283°
2026-04-26 16:59 69.68014 18.90953 -8 ft 0 kts 283°
2026-04-26 16:59 69.68008 18.91023 -7 ft 2 kts 283°
2026-04-26 17:00 69.68002 18.91108 -5 ft 2 kts 283°
2026-04-26 17:00 69.67995 18.91191 -3 ft 2 kts 283°
2026-04-26 17:00 69.67992 18.91222 -3 ft 0 kts 283°
2026-04-26 17:01 69.67992 18.91257 -2 ft 2 kts 243°
2026-04-26 17:01 69.68002 18.91285 -1 ft 0 kts 199°
2026-04-26 17:01 69.68008 18.91288 -1 ft 1 kts 190°
2026-04-26 17:01 69.68010 18.91289 -1 ft 0 kts 193°
2026-04-26 17:03 69.68007 18.91288 -1 ft 3 kts 192°
2026-04-26 17:04 69.67970 18.91261 -2 ft 6 kts 194°
2026-04-26 17:04 69.67915 18.91222 -2 ft 9 kts 193°
2026-04-26 17:04 69.67844 18.91174 -4 ft 11 kts 192°
2026-04-26 17:04 69.67754 18.91114 -7 ft 14 kts 193°
2026-04-26 17:05 69.67654 18.91078 -10 ft 12 kts 154°
2026-04-26 17:05 69.67641 18.91117 -9 ft 0 kts 120°
2026-04-26 17:05 69.67641 18.91118 -9 ft 0 kts 120°
2026-04-26 17:06 69.67638 18.91129 -9 ft 6 kts 118°
2026-04-26 17:06 69.67622 18.91341 -5 ft 10 kts 80°
2026-04-26 17:06 69.67667 18.91446 -1 ft 9 kts 16°
2026-04-26 17:07 69.67954 18.91638 6 ft 80 kts 12°
2026-04-26 17:07 69.68723 18.92134 -3 ft 145 kts 11°
2026-04-26 17:07 69.69795 18.92702 439 ft 160 kts
2026-04-26 17:07 69.70853 18.93468 1219 ft 160 kts 13°
2026-04-26 17:08 69.71895 18.94290 2047 ft 155 kts 11°
2026-04-26 17:08 69.72961 18.95019 2556 ft 167 kts
2026-04-26 17:08 69.74141 18.95678 3111 ft 179 kts
2026-04-26 17:08 69.75389 18.96497 3647 ft 193 kts 10°
2026-04-26 17:09 69.76693 18.97843 4136 ft 214 kts 31°
2026-04-26 17:09 69.77428 18.99934 4444 ft 233 kts 52°
2026-04-26 17:09 69.77993 19.06043 5428 ft 253 kts 94°
2026-04-26 17:09 69.77594 19.11004 6301 ft 255 kts 101°
2026-04-26 17:10 69.77167 19.15929 7146 ft 258 kts 101°
2026-04-26 17:10 69.76746 19.21001 7979 ft 263 kts 101°
2026-04-26 17:10 69.76005 19.25748 8775 ft 272 kts 129°
2026-04-26 17:10 69.74496 19.28910 9660 ft 273 kts 161°
2026-04-26 17:11 69.72669 19.29561 10492 ft 270 kts 192°
2026-04-26 17:11 69.70872 19.28145 11312 ft 270 kts 199°
2026-04-26 17:11 69.69046 19.26712 12076 ft 276 kts 197°
2026-04-26 17:11 69.67185 19.25407 12840 ft 280 kts 196°
2026-04-26 17:12 69.63367 19.22835 14359 ft 287 kts 196°
2026-04-26 17:12 69.61430 19.21530 15103 ft 290 kts 196°
2026-04-26 17:13 69.57474 19.18890 16540 ft 298 kts 192°
2026-04-26 17:13 69.55421 19.18774 17209 ft 304 kts 170°
2026-04-26 17:13 69.51559 19.23766 18588 ft 310 kts 149°
2026-04-26 17:14 69.49707 19.26817 19242 ft 313 kts 149°
2026-04-26 17:14 69.45912 19.32982 20538 ft 319 kts 150°
2026-04-26 17:14 69.43987 19.36054 21157 ft 322 kts 150°
2026-04-26 17:15 69.40053 19.42264 22348 ft 328 kts 150°
2026-04-26 17:15 69.38040 19.45419 22724 ft 338 kts 150°
2026-04-26 17:15 69.35948 19.48689 23000 ft 351 kts 150°
2026-04-26 17:16 69.33800 19.52035 23260 ft 365 kts 150°
2026-04-26 17:16 69.31516 19.55588 23521 ft 378 kts 150°
2026-04-26 17:16 69.29224 19.59142 23841 ft 388 kts 150°
2026-04-26 17:16 69.26855 19.62807 24350 ft 392 kts 150°
2026-04-26 17:17 69.24441 19.66532 24923 ft 395 kts 151°
2026-04-26 17:17 69.22027 19.70249 25400 ft 398 kts 151°
2026-04-26 17:17 69.19592 19.73989 25816 ft 403 kts 151°
2026-04-26 17:17 69.17142 19.77745 26212 ft 407 kts 152°
2026-04-26 17:18 69.14651 19.81551 26588 ft 410 kts 152°
2026-04-26 17:18 69.12149 19.85361 26913 ft 414 kts 152°
2026-04-26 17:18 69.09603 19.89226 27237 ft 418 kts 151°
2026-04-26 17:18 69.07044 19.93096 27553 ft 422 kts 152°
2026-04-26 17:19 69.01817 20.00587 28135 ft 430 kts 153°
2026-04-26 17:19 68.99133 20.04371 28416 ft 434 kts 153°
2026-04-26 17:19 68.96473 20.08122 28692 ft 438 kts 153°
2026-04-26 17:20 68.93755 20.11953 28972 ft 441 kts 153°
2026-04-26 17:20 68.92838 20.13244 29067 ft 442 kts 153°
2026-04-26 17:20 68.88242 20.19707 29550 ft 447 kts 153°
2026-04-26 17:20 68.85472 20.23586 29833 ft 449 kts 153°
2026-04-26 17:21 68.82700 20.27458 30090 ft 452 kts 153°
2026-04-26 17:21 68.79858 20.31191 30355 ft 455 kts 156°
2026-04-26 17:21 68.76926 20.34459 30568 ft 458 kts 160°
2026-04-26 17:21 68.73937 20.37231 30815 ft 460 kts 162°
2026-04-26 17:22 68.70885 20.39992 31053 ft 462 kts 162°
2026-04-26 17:22 68.67834 20.42779 31309 ft 464 kts 161°
2026-04-26 17:22 68.64828 20.45529 31625 ft 463 kts 161°
2026-04-26 17:22 68.61786 20.48305 31930 ft 462 kts 161°
2026-04-26 17:23 68.58742 20.51071 32202 ft 463 kts 161°
2026-04-26 17:23 68.55696 20.53832 32463 ft 463 kts 161°
2026-04-26 17:23 68.52642 20.56591 32715 ft 464 kts 161°
2026-04-26 17:23 68.49623 20.59311 32958 ft 464 kts 161°
2026-04-26 17:24 68.46558 20.62065 33198 ft 464 kts 162°
2026-04-26 17:24 68.43465 20.64833 33497 ft 465 kts 162°
2026-04-26 17:24 68.40414 20.67557 33809 ft 464 kts 162°
2026-04-26 17:24 68.37366 20.70270 34123 ft 464 kts 162°
2026-04-26 17:25 68.34319 20.72973 34423 ft 463 kts 162°
2026-04-26 17:25 68.31277 20.75663 34721 ft 463 kts 162°
2026-04-26 17:25 68.28238 20.78345 35002 ft 462 kts 162°
2026-04-26 17:25 68.25192 20.81024 35259 ft 462 kts 162°
2026-04-26 17:26 68.22150 20.83694 35469 ft 464 kts 162°
2026-04-26 17:26 68.19076 20.86384 35678 ft 465 kts 162°
2026-04-26 17:26 68.16033 20.89039 35870 ft 466 kts 162°
2026-04-26 17:26 68.12929 20.91740 36065 ft 467 kts 162°
2026-04-26 17:27 68.09859 20.94404 36248 ft 467 kts 162°
2026-04-26 17:27 68.06774 20.97075 36430 ft 468 kts 162°
2026-04-26 17:27 68.03709 20.99721 36595 ft 469 kts 162°
2026-04-26 17:27 68.00581 21.02413 36741 ft 470 kts 162°
2026-04-26 17:28 67.97498 21.05059 36859 ft 472 kts 162°
2026-04-26 17:28 67.94352 21.07751 36874 ft 473 kts 162°
2026-04-26 17:28 67.88112 21.13066 36889 ft 473 kts 162°
2026-04-26 17:29 67.83947 21.16598 36900 ft 473 kts 162°
2026-04-26 17:29 67.75630 21.23612 36911 ft 473 kts 162°
2026-04-26 17:30 67.69376 21.28852 36912 ft 472 kts 162°
2026-04-26 17:30 67.63100 21.34079 36906 ft 473 kts 162°
2026-04-26 17:31 67.56872 21.39239 36901 ft 473 kts 162°
2026-04-26 17:31 67.50614 21.44397 36893 ft 474 kts 162°
2026-04-26 17:32 67.44371 21.49513 36893 ft 474 kts 162°
2026-04-26 17:32 67.38086 21.54634 36895 ft 474 kts 162°
2026-04-26 17:33 67.31828 21.59703 36890 ft 473 kts 162°
2026-04-26 17:34 67.22430 21.67265 36885 ft 473 kts 163°
2026-04-26 17:34 67.16202 21.72244 36881 ft 474 kts 163°
2026-04-26 17:35 67.09908 21.77248 36886 ft 474 kts 163°
2026-04-26 17:35 67.03611 21.82230 36893 ft 474 kts 163°
2026-04-26 17:36 66.97345 21.87160 36899 ft 474 kts 163°
2026-04-26 17:36 66.91111 21.92035 36901 ft 474 kts 163°
2026-04-26 17:37 66.84821 21.96927 36903 ft 475 kts 163°
2026-04-26 17:37 66.78519 22.01800 36909 ft 474 kts 163°
2026-04-26 17:38 66.69074 22.09062 36905 ft 474 kts 163°
2026-04-26 17:38 66.62820 22.13839 36906 ft 474 kts 163°
2026-04-26 17:39 66.56515 22.18629 36900 ft 474 kts 163°
2026-04-26 17:39 66.50205 22.23398 36901 ft 475 kts 163°
2026-04-26 17:40 66.46008 22.26556 36905 ft 475 kts 163°
2026-04-26 17:40 66.37618 22.32831 36899 ft 475 kts 163°
2026-04-26 17:41 66.31316 22.37516 36894 ft 474 kts 163°
2026-04-26 17:41 66.25011 22.42180 36887 ft 474 kts 163°
2026-04-26 17:42 66.18707 22.46821 36886 ft 475 kts 163°
2026-04-26 17:42 66.12397 22.51442 36890 ft 475 kts 163°
2026-04-26 17:43 66.06116 22.56018 36896 ft 475 kts 163°
2026-04-26 17:43 65.99784 22.60609 36904 ft 475 kts 163°
2026-04-26 17:44 65.93469 22.65160 36911 ft 475 kts 164°
2026-04-26 17:44 65.87165 22.69678 36914 ft 475 kts 164°
2026-04-26 17:45 65.80878 22.74163 36916 ft 475 kts 164°
2026-04-26 17:45 65.74572 22.78639 36924 ft 475 kts 164°
2026-04-26 17:46 65.68262 22.83097 36931 ft 475 kts 164°
2026-04-26 17:46 65.61965 22.87523 36933 ft 474 kts 164°
2026-04-26 17:47 65.57756 22.90469 36934 ft 473 kts 164°
2026-04-26 17:47 65.49355 22.96317 36932 ft 475 kts 164°
2026-04-26 17:48 65.43001 23.00715 36930 ft 475 kts 164°
2026-04-26 17:48 65.36692 23.05056 36925 ft 475 kts 164°
2026-04-26 17:49 65.30375 23.09384 36921 ft 475 kts 164°
2026-04-26 17:49 65.24072 23.13683 36921 ft 475 kts 164°
2026-04-26 17:50 65.17719 23.17994 36917 ft 475 kts 164°
2026-04-26 17:50 65.11398 23.22261 36915 ft 475 kts 164°
2026-04-26 17:51 65.05081 23.26505 36916 ft 475 kts 164°
2026-04-26 17:51 64.98721 23.30758 36916 ft 475 kts 164°
2026-04-26 17:52 64.92378 23.34976 36914 ft 475 kts 164°
2026-04-26 17:52 64.86079 23.39143 36907 ft 475 kts 164°
2026-04-26 17:53 64.79724 23.43329 36903 ft 475 kts 164°
2026-04-26 17:54 64.70218 23.49553 36904 ft 475 kts 164°
2026-04-26 17:54 64.63846 23.53699 36905 ft 475 kts 164°
2026-04-26 17:55 64.57529 23.57790 36904 ft 475 kts 164°
2026-04-26 17:55 64.51165 23.61892 36904 ft 475 kts 164°
2026-04-26 17:56 64.44824 23.65959 36901 ft 476 kts 165°
2026-04-26 17:57 64.32130 23.74037 36900 ft 476 kts 165°
2026-04-26 17:57 64.25746 23.78073 36902 ft 476 kts 165°
2026-04-26 17:58 64.13006 23.86067 36898 ft 475 kts 165°
2026-04-26 17:59 64.03477 23.91997 36892 ft 475 kts 165°
2026-04-26 17:59 63.97165 23.95906 36889 ft 476 kts 165°
2026-04-26 18:00 63.90781 23.99840 36886 ft 477 kts 165°
2026-04-26 18:00 63.84378 24.03763 36882 ft 476 kts 165°
2026-04-26 18:01 63.78045 24.07625 36881 ft 475 kts 165°
2026-04-26 18:01 63.71685 24.11485 36874 ft 475 kts 165°
2026-04-26 18:02 63.67412 24.14071 36871 ft 476 kts 165°
2026-04-26 18:02 63.58944 24.19171 36872 ft 475 kts 165°
2026-04-26 18:03 63.52581 24.22981 36871 ft 474 kts 165°
2026-04-26 18:03 63.46231 24.26765 36872 ft 474 kts 165°
2026-04-26 18:04 63.39875 24.30537 36869 ft 474 kts 165°
2026-04-26 18:05 63.30331 24.36167 36866 ft 474 kts 165°
2026-04-26 18:05 63.23991 24.39885 36866 ft 474 kts 165°
2026-04-26 18:06 63.17670 24.43575 36862 ft 474 kts 165°
2026-04-26 18:06 63.11299 24.47276 36861 ft 474 kts 165°
2026-04-26 18:07 63.04967 24.50938 36852 ft 474 kts 165°
2026-04-26 18:07 62.98605 24.54606 36851 ft 473 kts 165°
2026-04-26 18:08 62.92246 24.58253 36848 ft 473 kts 165°
2026-04-26 18:08 62.85891 24.61882 36839 ft 473 kts 165°
2026-04-26 18:09 62.79541 24.65491 36844 ft 474 kts 166°
2026-04-26 18:09 62.73179 24.69092 36835 ft 474 kts 166°
2026-04-26 18:10 62.66845 24.72661 36834 ft 474 kts 166°
2026-04-26 18:10 62.60450 24.76245 36833 ft 473 kts 166°
2026-04-26 18:11 62.54120 24.79779 36828 ft 473 kts 166°
2026-04-26 18:11 62.47776 24.83307 36829 ft 474 kts 166°
2026-04-26 18:12 62.41419 24.86825 36824 ft 474 kts 166°
2026-04-26 18:12 62.34998 24.90366 36826 ft 474 kts 166°
2026-04-26 18:13 62.28671 24.93838 36831 ft 473 kts 166°
2026-04-26 18:13 62.22276 24.97330 36644 ft 474 kts 166°
2026-04-26 18:14 62.15964 25.00761 36209 ft 471 kts 166°
2026-04-26 18:14 62.12790 25.02481 35986 ft 468 kts 166°
2026-04-26 18:14 62.09664 25.04173 35762 ft 466 kts 166°
2026-04-26 18:14 62.06553 25.05852 35546 ft 464 kts 166°
2026-04-26 18:15 62.03409 25.07545 35326 ft 465 kts 166°
2026-04-26 18:15 62.00307 25.09213 35101 ft 465 kts 166°
2026-04-26 18:15 61.97198 25.10882 34856 ft 465 kts 166°
2026-04-26 18:15 61.94061 25.12562 34514 ft 465 kts 166°
2026-04-26 18:16 61.90936 25.14231 34060 ft 466 kts 166°
2026-04-26 18:16 61.84679 25.17562 33020 ft 467 kts 166°
2026-04-26 18:16 61.81563 25.19215 32588 ft 467 kts 166°
2026-04-26 18:17 61.78386 25.20901 32124 ft 468 kts 166°
2026-04-26 18:17 61.75249 25.22562 31652 ft 469 kts 166°
2026-04-26 18:17 61.72086 25.24232 31131 ft 471 kts 166°
2026-04-26 18:17 61.68896 25.25911 30652 ft 472 kts 166°
2026-04-26 18:18 61.65749 25.27528 30257 ft 470 kts 168°
2026-04-26 18:18 61.62528 25.28723 29804 ft 469 kts 173°
2026-04-26 18:18 61.59311 25.29323 29355 ft 466 kts 179°
2026-04-26 18:18 61.56107 25.29353 28908 ft 463 kts 182°
2026-04-26 18:19 61.52890 25.29180 28402 ft 463 kts 183°
2026-04-26 18:19 61.49715 25.28992 27900 ft 462 kts 183°
2026-04-26 18:19 61.46543 25.28816 27393 ft 460 kts 182°
2026-04-26 18:19 61.43333 25.28652 26867 ft 459 kts 182°
2026-04-26 18:20 61.40188 25.28503 26388 ft 455 kts 182°
2026-04-26 18:20 61.37034 25.28359 25917 ft 451 kts 182°
2026-04-26 18:20 61.33922 25.28218 25451 ft 447 kts 182°
2026-04-26 18:20 61.32895 25.28171 25284 ft 446 kts 182°
2026-04-26 18:21 61.27827 25.27939 24493 ft 437 kts 182°
2026-04-26 18:21 61.24800 25.27799 24011 ft 432 kts 182°
2026-04-26 18:21 61.21833 25.27662 23536 ft 427 kts 182°
2026-04-26 18:21 61.18862 25.27529 23064 ft 423 kts 182°
2026-04-26 18:22 61.15970 25.27398 22599 ft 418 kts 182°
2026-04-26 18:22 61.13074 25.27269 22126 ft 414 kts 182°
2026-04-26 18:22 61.10247 25.27144 21669 ft 410 kts 182°
2026-04-26 18:22 61.07430 25.27019 21216 ft 406 kts 182°
2026-04-26 18:23 61.04635 25.26895 20760 ft 402 kts 182°
2026-04-26 18:23 61.01848 25.26772 20310 ft 398 kts 182°
2026-04-26 18:23 60.99091 25.26647 19864 ft 394 kts 182°
2026-04-26 18:23 60.96411 25.26528 19436 ft 390 kts 182°
2026-04-26 18:24 60.93692 25.26566 18994 ft 386 kts 179°
2026-04-26 18:24 60.91060 25.26733 18556 ft 383 kts 178°
2026-04-26 18:24 60.88418 25.26909 18107 ft 380 kts 178°
2026-04-26 18:24 60.85815 25.27083 17874 ft 369 kts 178°
2026-04-26 18:25 60.83305 25.27250 17758 ft 356 kts 178°
2026-04-26 18:25 60.80849 25.27385 17442 ft 349 kts 182°
2026-04-26 18:25 60.78537 25.26456 17040 ft 341 kts 206°
2026-04-26 18:25 60.76550 25.23953 16511 ft 338 kts 219°
2026-04-26 18:26 60.74686 25.21026 16103 ft 334 kts 221°
2026-04-26 18:26 60.72870 25.18190 15762 ft 329 kts 219°
2026-04-26 18:26 60.71042 25.15457 15423 ft 325 kts 218°
2026-04-26 18:26 60.69222 25.12836 15073 ft 322 kts 218°
2026-04-26 18:27 60.67381 25.10251 14662 ft 320 kts 217°
2026-04-26 18:27 60.65564 25.07739 14269 ft 317 kts 217°
2026-04-26 18:27 60.63732 25.05232 13856 ft 316 kts 217°
2026-04-26 18:27 60.61914 25.02758 13433 ft 315 kts 217°
2026-04-26 18:28 60.60112 25.00315 13041 ft 313 kts 217°
2026-04-26 18:28 60.58308 24.97874 12624 ft 311 kts 217°
2026-04-26 18:28 60.56505 24.95443 12193 ft 310 kts 217°
2026-04-26 18:28 60.54733 24.93055 11779 ft 310 kts 217°
2026-04-26 18:29 60.52947 24.90652 11367 ft 309 kts 217°
2026-04-26 18:29 60.51166 24.88256 10961 ft 308 kts 217°
2026-04-26 18:29 60.49376 24.85852 10454 ft 310 kts 217°
2026-04-26 18:29 60.47581 24.83441 10033 ft 309 kts 217°
2026-04-26 18:30 60.45816 24.81081 9689 ft 305 kts 217°
2026-04-26 18:30 60.44057 24.78730 9320 ft 304 kts 217°
2026-04-26 18:30 60.42284 24.76366 8955 ft 302 kts 217°
2026-04-26 18:30 60.40546 24.74049 8622 ft 301 kts 218°
2026-04-26 18:31 60.38807 24.71735 8255 ft 300 kts 218°
2026-04-26 18:31 60.37077 24.69431 7928 ft 298 kts 218°
2026-04-26 18:31 60.35345 24.67131 7595 ft 297 kts 218°
2026-04-26 18:31 60.33643 24.64875 7254 ft 296 kts 218°
2026-04-26 18:32 60.31935 24.62615 6921 ft 295 kts 218°
2026-04-26 18:32 60.30221 24.60347 6727 ft 293 kts 218°
2026-04-26 18:32 60.28519 24.58096 6660 ft 293 kts 218°
2026-04-26 18:32 60.26797 24.56004 6449 ft 293 kts 207°
2026-04-26 18:33 60.24794 24.55228 5984 ft 299 kts 174°
2026-04-26 18:33 60.22925 24.56605 5690 ft 280 kts 139°
2026-04-26 18:33 60.21746 24.59412 5399 ft 253 kts 108°
2026-04-26 18:33 60.21166 24.62619 5110 ft 236 kts 99°
2026-04-26 18:34 60.20782 24.65743 4632 ft 225 kts 83°
2026-04-26 18:34 60.21149 24.68539 4071 ft 203 kts 46°
2026-04-26 18:34 60.22084 24.70549 3594 ft 194 kts 37°
2026-04-26 18:34 60.23005 24.72424 3336 ft 183 kts 38°
2026-04-26 18:35 60.23805 24.74134 3212 ft 156 kts 38°
2026-04-26 18:35 60.24542 24.75711 2638 ft 158 kts 37°
2026-04-26 18:35 60.25318 24.77357 2165 ft 161 kts 38°
2026-04-26 18:35 60.26083 24.78996 1533 ft 165 kts 38°
2026-04-26 18:36 60.26874 24.80663 963 ft 171 kts 39°
2026-04-26 18:36 60.27714 24.82483 812 ft 180 kts 41°
2026-04-26 18:36 60.28553 24.84353 1337 ft 180 kts 41°
2026-04-26 18:36 60.29400 24.86250 850 ft 180 kts 41°
2026-04-26 18:37 60.30229 24.88006 540 ft 167 kts 40°
2026-04-26 18:37 60.30974 24.89690 311 ft 153 kts 41°
2026-04-26 18:37 60.31645 24.91182 164 ft 134 kts 39°
2026-04-26 18:37 60.32197 24.92317 184 ft 90 kts 47°
2026-04-26 18:38 60.32442 24.93088 191 ft 47 kts 74°
2026-04-26 18:38 60.32480 24.93417 194 ft 0 kts 77°
2026-04-26 18:38 60.32480 24.93419 194 ft 0 kts 77°
2026-04-26 18:38 60.32480 24.93421 194 ft 1 kts 77°
2026-04-26 18:39 60.32487 24.93488 194 ft 10 kts 78°
2026-04-26 18:39 60.32503 24.93638 194 ft 11 kts 78°
2026-04-26 18:39 60.32521 24.93798 195 ft 12 kts 76°
2026-04-26 18:39 60.32556 24.93954 195 ft 12 kts 51°
2026-04-26 18:40 60.32612 24.94079 195 ft 12 kts 45°
2026-04-26 18:40 60.32673 24.94211 195 ft 12 kts 52°
2026-04-26 18:40 60.32739 24.94360 196 ft 18 kts 46°
2026-04-26 18:40 60.32824 24.94542 198 ft 17 kts 47°
2026-04-26 18:41 60.32902 24.94719 199 ft 15 kts 46°
2026-04-26 18:41 60.32970 24.94864 204 ft 12 kts 46°
2026-04-26 18:41 60.33038 24.95015 205 ft 14 kts 47°
2026-04-26 18:41 60.33105 24.95164 207 ft 18 kts 47°
2026-04-26 18:42 60.33200 24.95387 206 ft 20 kts 65°
2026-04-26 18:42 60.33146 24.95625 202 ft 21 kts 137°
2026-04-26 18:42 60.33024 24.95822 198 ft 20 kts 150°
2026-04-26 18:42 60.32898 24.95969 197 ft 21 kts 150°
2026-04-26 18:43 60.32767 24.96121 195 ft 22 kts 150°
2026-04-26 18:43 60.32626 24.96286 192 ft 24 kts 150°
2026-04-26 18:43 60.32487 24.96451 186 ft 22 kts 150°
2026-04-26 18:43 60.32349 24.96609 180 ft 24 kts 151°
2026-04-26 18:44 60.32219 24.96764 178 ft 20 kts 150°
2026-04-26 18:44 60.32094 24.96909 181 ft 19 kts 150°
2026-04-26 18:44 60.31980 24.97033 185 ft 17 kts 153°
2026-04-26 18:44 60.31880 24.97136 190 ft 10 kts 157°
2026-04-26 18:45 60.31835 24.97083 191 ft 5 kts 244°
2026-04-26 18:45 60.31824 24.97039 192 ft 0 kts 243°
2026-04-26 18:45 60.31824 24.97038 192 ft 0 kts 243°
2026-04-26 18:45 60.31824 24.97039 192 ft 0 kts 243°